Terug naar catalogus

CZ-12 R/B

ActiefLEO
NORAD 66421·ROCKET BODY·🇨🇳 China

Gelanceerd Nov 10, 2025 vanaf Wenchang Space Launch Site

Loading…

Volgende Passages (komende 24 uur)

TLE

VersSource: Space-Track

Epoch: Sep 14, 2026, 01:04 UTC

1 66421U 25258K   26257.04445600 -.00000019  00000-0  44837-4 0  9997
2 66421  49.9947 143.1606 0064365 159.1788 201.1776 14.42437138 44455

Volg CZ-12 R/B in realtime met AllMySat

Download on the App Store